Location: Tamazert
(32.6352°N, 5.2072°W)
Time: 05:24:37
(UTC+00:00)

SL-16 R/B - Pass Details

Date: 22 May 2022
Orbit: 839 x 850 km, 71.0° (Epoch: 24 June)

Event Time Altitude Azimuth Distance (km) Brightness Sun altitude
Exits shadow 02:53:08 69° 233° (SW) 899 2.0 -25.3°
Maximum altitude 02:53:46 78° 290° (WNW) 862 2.1 -25.2°
Drops below altitude 10° 02:59:26 10° 17° (NNE) 2,466 5.5 -24.4°
Sets 03:01:53 0° 19° (NNE) 3,405 6.5 -24.0°
